Dewpoint
56 56 56 55 56 55 55 55 55 55 56 56 57 57 58 60 59 47 25 41 46 66 61 33 38 36 42 44 54 55 47 45 44 47 50 55 54 56 57 58 57 58 60 63 67
56 56 56 56 55 55 54 55 55 55 56 56 56 57 59 60 46 26 50 62 65 65 34 33 36 35 38 46 52 51 47 45 46 47 47 54 54 55 56 56 58 60 64 67 69
56 55 55 55 55 55 54 54 54 55 55 56 56 57 59 58 34 11 65 68 67 60 31 32 34 36 38 44 48 50 46 48 46 47 48 50 54 55 54 54 56 58 65 68 69
55 55 55 55 55 55 54 54 54 54 55 56 56 58 60 49 10 23 68 73 70 39 30 31 35 36 38 38 44 44 43 46 47 47 48 50 51 52 54 56 58 59 64 67 67
55 55 55 55 54 55 55 54 54 54 54 56 57 58 52 30 14 33 68 69 53 32 29 32 35 36 35 36 38 40 41 41 44 43 44 45 50 54 57 60 60 63 64 66 66
55 55 54 54 54 54 54 54 53 53 54 56 57 59 41 17 20 32 37 45 40 31 31 34 34 34 34 35 39 37 39 39 42 45 45 46 53 54 59 61 61 63 64 66 65
55 54 54 54 54 54 54 53 53 53 55 56 58 55 35 15 24 33 29 36 36 33 33 35 35 34 35 36 36 36 38 39 40 44 45 51 53 58 61 63 63 63 65 66 66
55 54 54 54 53 53 53 52 52 54 56 57 59 50 23 20 22 25 27 31 36 35 33 37 36 36 34 35 36 37 39 36 39 47 47 48 54 59 61 61 62 63 65 67 66
54 54 53 53 53 52 52 52 54 55 57 57 52 39 15 35 19 21 27 30 35 36 38 36 38 34 33 35 33 35 32 33 35 47 46 46 54 59 60 60 61 59 60 63 67
55 54 54 53 52 52 52 53 54 55 55 52 47 38 25 14 16 23 26 30 32 35 37 38 34 34 34 32 31 33 29 30 34 42 48 49 55 58 59 60 60 60 59 62 65
54 54 54 53 52 51 51 48 44 42 42 26 19 20 23 25 29 23 30 29 30 33 36 35 33 32 30 30 31 30 29 30 36 43 44 46 49 52 57 58 58 57 61 64 64
54 54 53 52 52 51 50 40 36 40 33 34 27 25 25 25 24 26 31 28 29 29 36 33 32 32 31 29 28 30 29 30 38 43 43 48 51 54 55 56 56 57 59 62 61
54 54 53 52 51 50 45 41 44 42 36 37 35 24 18 20 24 26 30 27 27 30 32 33 30 31 31 29 28 30 28 29 30 43 45 47 48 52 54 56 56 57 58 58 58
54 54 53 51 47 45 41 43 44 43 31 32 34 29 29 23 20 26 29 25 25 28 31 33 31 30 29 28 27 29 29 30 29 36 34 40 39 48 50 52 55 54 57 58 59
54 54 53 52 46 41 39 44 42 40 23 29 33 33 27 16 19 23 28 24 22 28 30 29 30 30 30 29 28 27 31 31 31 34 34 38 36 47 48 49 51 54 54 54 55
54 53 52 49 47 44 46 45 39 32 22 28 28 27 23 17 16 23 25 26 23 25 29 28 29 26 25 26 27 27 29 36 35 31 29 37 34 41 41 49 51 52 52 53 52
52 52 51 48 42 45 47 41 31 25 33 28 22 23 18 17 16 21 24 24 21 23 26 27 27 26 26 26 27 27 27 28 27 25 31 40 38 43 46 51 50 49 51 52 55
51 50 51 47 48 48 46 35 29 21 30 27 19 18 17 17 16 15 20 19 20 18 16 21 21 24 25 27 27 27 26 28 27 26 33 41 35 43 47 52 53 50 49 52 54
51 48 48 48 48 48 38 30 27 34 36 28 19 17 17 16 17 16 15 16 17 20 20 18 21 24 26 27 27 27 26 26 23 26 26 33 41 47 49 50 53 51 48 50 52
50 47 45 47 48 45 35 30 32 33 34 30 23 20 20 16 16 17 17 13 14 18 21 21 23 26 25 25 27 28 28 24 24 29 29 32 35 37 49 49 53 50 49 50 53
50 40 44 46 47 41 30 29 32 33 34 32 28 23 22 19 16 18 18 17 12 17 24 23 25 27 27 27 25 26 25 26 28 27 29 27 32 39 49 50 53 54 52 54 57
48 34 45 45 41 38 31 32 37 31 32 31 34 30 19 18 18 19 19 19 17 18 23 26 23 26 25 26 27 29 26 24 26 32 28 30 34 50 48 50 54 56 58 60 63
42 40 46 45 36 35 36 33 33 30 30 32 34 33 25 24 26 21 22 20 19 18 25 25 23 25 24 24 33 30 29 27 26 25 32 27 33 49 48 55 56 59 61 64 64
49 37 43 45 41 36 34 34 32 36 37 36 38 38 35 36 37 36 29 30 22 20 51 35 21 24 22 29 33 32 30 29 25 25 27 29 35 48 52 56 60 61 62 62 61
51 45 44 37 38 38 40 41 38 38 40 41 40 38 37 38 39 39 36 37 27 41 29 23 24 26 25 27 28 28 30 29 29 28 30 29 31 39 50 53 59 61 61 60 58
47 48 45 45 43 43 43 42 41 40 42 39 40 38 38 39 41 39 37 37 35 36 29 23 28 29 28 26 28 32 31 31 30 31 34 33 34 46 50 55 59 61 60 58 55
47 48 47 45 43 43 43 43 42 43 43 43 42 43 41 43 42 41 39 38 38 34 31 29 29 34 29 31 30 32 33 33 34 35 35 33 43 50 51 54 57 60 60 56 54
Lifted_Index
14 14 15 14 15 15 14 12 12 13 14 14 14 13 13 12 11 10 9 9 8 8 8 7 6 5 4 2 -0 -2 -1 -1 -1 -1 -2 -3 -3 -3 -3 -3 -3 -3 -3 -3 -3
13 14 14 14 14 15 14 13 12 13 14 14 14 13 12 12 11 10 9 8 8 8 8 7 5 4 3 1 -1 -2 -1 -1 -1 -1 -2 -3 -4 -4 -4 -4 -3 -3 -3 -4 -4
12 13 14 14 14 14 14 14 13 12 13 14 14 13 12 11 10 9 7 5 6 7 7 6 5 4 2 1 -1 -1 -1 -1 -1 -1 -2 -3 -4 -4 -4 -4 -4 -4 -4 -4 -4
12 12 13 13 14 14 14 14 13 12 13 13 13 12 11 10 9 8 5 3 4 7 7 5 4 3 2 0 -1 -1 -1 -1 -1 -1 -1 -3 -3 -4 -4 -4 -4 -4 -4 -4 -4
12 12 12 13 13 13 14 14 14 13 12 13 13 12 11 10 9 8 5 3 5 6 6 4 4 3 2 0 -0 -0 -0 -0 -0 -1 -1 -2 -3 -4 -4 -4 -4 -4 -4 -4 -4
11 12 12 12 13 13 13 14 14 13 12 13 13 11 10 10 10 9 6 5 6 6 5 4 4 3 1 0 -0 0 0 -0 -0 -1 -1 -2 -3 -4 -4 -5 -5 -5 -5 -5 -5
11 11 11 12 13 13 13 14 14 12 12 12 12 11 10 11 11 9 8 7 7 6 5 4 4 3 1 0 0 0 -0 -1 -1 -1 -2 -3 -3 -4 -5 -5 -5 -5 -5 -5 -5
11 11 11 12 12 13 13 14 13 12 12 12 11 10 10 11 11 9 8 7 7 6 5 4 4 3 1 1 0 -0 -1 -1 -1 -2 -2 -3 -4 -4 -5 -5 -5 -5 -5 -5 -5
11 11 11 12 12 13 13 14 13 12 11 11 11 10 10 10 10 8 8 7 7 6 5 4 3 2 1 0 -0 -1 -1 -1 -1 -2 -3 -3 -4 -4 -4 -5 -4 -4 -3 -4 -4
11 11 11 11 12 13 13 13 12 11 11 10 10 9 10 10 9 8 7 7 6 5 4 3 2 1 0 -0 -0 -1 -1 -1 -1 -2 -3 -3 -4 -4 -4 -4 -4 -3 -2 -2 -3
11 11 11 11 12 12 12 11 10 9 9 9 9 9 9 9 8 7 7 7 6 4 3 2 2 1 0 1 1 0 -0 -0 -1 -2 -3 -3 -3 -3 -3 -3 -3 -3 -2 -2 -1
11 11 11 11 12 12 11 10 9 9 8 8 9 9 9 9 8 7 6 6 5 4 3 2 1 1 1 2 1 0 -0 -1 -1 -2 -3 -3 -3 -3 -3 -3 -3 -3 -3 -2 -1
11 11 11 11 11 11 10 9 9 8 7 7 8 9 9 8 7 7 6 6 5 4 3 2 2 2 2 2 1 0 -0 -0 -1 -2 -3 -3 -3 -3 -3 -3 -3 -3 -3 -3 -3
11 11 11 11 10 10 10 9 8 7 6 6 7 8 8 8 7 6 6 6 5 4 3 2 2 3 2 2 1 0 -0 -0 -1 -2 -2 -2 -2 -3 -3 -3 -3 -3 -3 -3 -3
10 10 10 10 10 9 9 9 8 6 5 5 6 7 8 8 7 7 6 6 5 4 3 3 3 3 2 2 1 1 0 -0 -1 -1 -1 -1 -2 -2 -2 -3 -3 -3 -3 -2 -2
9 9 9 9 9 9 9 8 6 5 4 5 6 7 7 7 7 7 6 6 6 5 4 3 3 3 3 2 1 1 0 -1 -1 -1 -1 -1 -2 -2 -2 -3 -3 -3 -2 -2 -2
8 8 8 8 8 8 7 6 5 4 4 5 6 7 7 7 7 6 6 6 6 5 4 4 4 3 3 2 1 1 0 -0 -1 -1 -1 -1 -2 -2 -2 -3 -3 -2 -2 -2 -2
7 7 7 8 8 7 6 5 3 3 3 4 6 6 6 6 6 6 6 6 6 5 4 4 3 3 2 1 1 0 0 -0 -0 -0 -1 -1 -2 -2 -2 -3 -3 -2 -2 -2 -2
6 6 6 7 7 6 5 3 3 2 2 4 5 6 6 6 6 6 6 6 6 5 4 3 2 2 2 1 1 1 0 -0 -0 -0 -1 -1 -1 -2 -2 -3 -3 -3 -2 -2 -2
5 5 6 6 6 5 4 3 2 2 2 3 4 5 5 5 5 5 6 5 5 5 4 3 2 1 1 1 1 0 0 -0 -0 -0 -0 -1 -1 -2 -2 -3 -3 -3 -3 -3 -3
4 5 5 5 4 3 3 3 2 2 2 2 3 3 4 5 5 5 5 5 5 5 5 3 2 1 1 1 0 0 -0 -0 -0 -0 -0 -1 -1 -2 -3 -3 -4 -4 -4 -4 -4
4 4 5 4 3 2 2 3 3 2 2 2 2 2 3 4 4 4 4 5 5 5 5 4 2 1 0 0 0 0 -0 -0 -0 -0 -0 -0 -1 -2 -3 -4 -5 -5 -5 -6 -6
3 4 4 3 2 2 2 2 2 2 2 1 1 1 2 2 3 3 3 4 5 5 5 4 2 1 0 0 0 0 0 -0 -0 -0 -0 -0 -1 -2 -3 -5 -6 -6 -6 -6 -6
2 2 3 2 2 1 1 1 1 1 1 0 -0 -0 0 0 0 1 2 3 4 4 4 4 3 1 0 0 0 -0 0 0 -0 -0 -0 -0 -1 -3 -4 -5 -6 -7 -6 -6 -6
1 1 2 2 1 1 0 0 -0 -0 -0 -1 -1 -1 -1 -1 -2 -1 -0 1 2 3 4 3 3 1 1 0 0 -0 -0 -0 -0 -0 -0 -1 -1 -2 -4 -5 -6 -6 -6 -5 -5
1 1 1 1 0 0 -0 -1 -1 -1 -1 -2 -2 -2 -2 -2 -3 -2 -1 -1 1 2 3 3 2 1 1 1 0 -0 -1 -1 -1 -1 -1 -1 -2 -3 -4 -4 -5 -6 -5 -4 -4
2 1 1 0 -0 -0 -1 -1 -1 -1 -2 -2 -2 -2 -2 -2 -2 -2 -2 -1 -0 1 2 2 1 1 0 0 -0 -1 -1 -1 -1 -1 -1 -2 -2 -3 -4 -4 -5 -6 -5 -4 -4